Starlink 30374

operational
NORAD ID: 57809 Int'l Des: 2023-138 Owner: SPXS Country: US Constellation: starlink
LEOCIRCULAR

Über Starlink 30374

Beschreibung wird geladen...

Live-Position

3D-Globus wird geladen...

Nächste Überflüge

Höhenverlauf

Altitude vs Time

uPlot chart will show altitude changes over time

Zweizeiliger Elementsatz

1 57809U 23138B 25258.86397159 .00000518 00000-0 53405-4 0 9991
2 57809 43.0026 106.3754 0001097 267.2403 92.8313 15.02538980112419
Epoch: 15. Sept. 2025 • Age: 37 hours

Aktueller Status

Höhe 559.6 km
Geschwindigkeit 7.59 km/s
Subsatellitenpunkt 26.87°N, 10.06°W
Startdatum 9. Sept. 2023
Alter 2 years
Typ internet

Technische Details

Klassifizierung Payload
Masse 730.00 kg
Trockenmasse 700.00 kg
Gesamtmasse 730.00 kg
Länge 0.30 m
Durchmesser 4.10 m
Spannweite 29.00 m
Form Box + pan
Hersteller SPXS
Bus-Typ Starlink V2M
Phasenstatus In Orbit
Besitzer/Staat SPXS/US

Große Konstellationen

Loading constellations...